Temperature
-1 -1 -1 -1 -1 -1 -1 -1 -1 -1 -1 -0 -0 0 0 1 1 1 1 2 2 2 2 3 3 3 3 3 3 3 3 3 4 4 4 4 4 4 5 5 5 5 5
-2 -2 -2 -2 -2 -2 -2 -2 -2 -2 -1 -1 -1 -1 -0 -0 0 0 1 1 1 2 2 2 2 3 3 3 3 3 3 3 3 3 3 4 4 4 4 4 4 5 5
-3 -3 -2 -2 -2 -2 -2 -2 -2 -2 -2 -2 -2 -1 -1 -1 -0 -0 0 0 1 1 1 1 2 2 2 2 2 2 2 2 3 3 3 3 3 3 3 3 4 4 4
-3 -3 -3 -3 -3 -3 -3 -3 -3 -3 -3 -2 -2 -2 -2 -1 -1 -1 -1 -0 -0 0 1 1 1 1 2 2 2 2 2 2 2 2 2 2 2 2 3 3 3 3 3
-4 -4 -4 -4 -4 -4 -4 -3 -3 -3 -3 -3 -3 -2 -2 -2 -2 -1 -1 -1 -1 -0 0 0 1 1 1 1 1 2 2 2 2 2 2 2 2 2 2 2 2 2 2
-4 -4 -4 -4 -4 -4 -4 -4 -4 -4 -4 -3 -3 -3 -3 -2 -2 -2 -2 -1 -1 -1 -1 -0 0 0 1 1 1 1 1 1 1 1 2 2 2 2 2 2 2 1 1
-5 -5 -5 -5 -5 -5 -5 -5 -4 -4 -4 -4 -4 -3 -3 -3 -3 -3 -2 -2 -2 -1 -1 -1 -0 -0 -0 0 0 0 1 1 1 1 1 1 2 2 1 1 1 1 1
-5 -6 -5 -6 -6 -5 -5 -5 -5 -5 -5 -4 -4 -4 -4 -3 -3 -3 -3 -2 -2 -2 -2 -1 -1 -1 -1 -0 -0 0 0 0 0 0 1 1 1 1 1 1 1 1 0
-6 -6 -6 -6 -6 -6 -6 -6 -6 -5 -5 -5 -5 -4 -4 -4 -4 -3 -3 -3 -3 -2 -2 -2 -2 -1 -1 -1 -1 -0 -0 -0 -0 0 0 0 1 0 0 0 0 -0 -0
-7 -7 -7 -7 -7 -7 -6 -6 -6 -6 -6 -6 -5 -5 -5 -5 -4 -4 -4 -4 -3 -3 -3 -2 -2 -2 -2 -2 -1 -1 -1 -1 -0 -0 -0 -0 -0 -0 -0 -0 -0 -1 -1
-7 -7 -7 -7 -7 -7 -7 -7 -7 -7 -6 -6 -6 -6 -5 -5 -5 -5 -4 -4 -4 -4 -3 -3 -3 -2 -2 -2 -2 -2 -1 -1 -1 -1 -1 -1 -1 -1 -1 -1 -1 -1 -1
-8 -8 -8 -8 -8 -8 -7 -7 -7 -7 -7 -7 -6 -6 -6 -6 -5 -5 -5 -5 -4 -4 -4 -4 -3 -3 -3 -3 -2 -2 -2 -2 -2 -1 -1 -1 -1 -1 -1 -1 -1 -1 -1
-8 -8 -8 -8 -8 -8 -8 -8 -8 -8 -8 -7 -7 -7 -6 -6 -6 -6 -5 -5 -5 -5 -4 -4 -4 -4 -3 -3 -3 -3 -2 -2 -2 -2 -2 -2 -2 -2 -2 -2 -2 -2 -2
-9 -9 -9 -9 -8 -8 -8 -8 -8 -8 -8 -8 -8 -7 -7 -7 -6 -6 -6 -6 -5 -5 -5 -5 -5 -4 -4 -4 -4 -3 -3 -3 -3 -3 -2 -2 -2 -2 -2 -2 -2 -2 -2
-9 -9 -9 -9 -9 -9 -8 -9 -9 -8 -8 -8 -8 -8 -8 -7 -7 -7 -7 -6 -6 -6 -5 -5 -5 -5 -5 -4 -4 -4 -4 -3 -3 -3 -3 -3 -3 -3 -3 -3 -3 -3 -3
-9 -9 -9 -9 -9 -9 -9 -9 -8 -9 -8 -8 -8 -8 -8 -8 -7 -7 -7 -7 -6 -6 -6 -6 -6 -6 -5 -5 -5 -5 -4 -4 -4 -4 -4 -4 -4 -4 -3 -4 -4 -4 -4
-10 -10 -10 -10 -10 -10 -10 -9 -9 -8 -8 -9 -9 -9 -8 -8 -8 -7 -7 -7 -7 -7 -7 -6 -6 -6 -6 -6 -6 -5 -5 -5 -5 -4 -4 -4 -4 -4 -4 -4 -4 -4 -4
-10 -10 -10 -10 -10 -10 -10 -10 -10 -10 -9 -9 -9 -9 -9 -8 -8 -8 -8 -8 -7 -7 -7 -7 -7 -7 -7 -6 -6 -6 -6 -5 -5 -5 -5 -5 -5 -5 -5 -5 -5 -5 -5
-10 -10 -10 -10 -10 -10 -10 -10 -10 -10 -10 -10 -9 -9 -9 -9 -8 -8 -8 -8 -8 -8 -8 -7 -7 -7 -7 -7 -7 -6 -6 -6 -6 -6 -5 -5 -5 -5 -5 -5 -5 -5 -5
-10 -10 -10 -10 -11 -10 -10 -11 -10 -10 -10 -10 -10 -10 -9 -9 -9 -9 -9 -9 -9 -8 -8 -8 -8 -7 -7 -7 -7 -7 -7 -6 -6 -6 -6 -6 -6 -6 -6 -6 -6 -6 -6
-11 -11 -11 -11 -11 -11 -11 -11 -11 -11 -11 -11 -10 -10 -10 -10 -10 -9 -9 -9 -9 -9 -9 -8 -8 -8 -8 -7 -7 -7 -7 -7 -7 -7 -6 -6 -6 -6 -6 -6 -6 -6 -6
-11 -11 -11 -11 -11 -11 -11 -11 -11 -11 -11 -11 -11 -10 -10 -10 -10 -10 -10 -9 -9 -9 -9 -9 -8 -8 -8 -8 -8 -7 -7 -7 -7 -7 -7 -7 -7 -7 -7 -7 -7 -7 -7
-11 -11 -11 -11 -11 -11 -12 -12 -11 -11 -11 -11 -11 -11 -11 -10 -10 -10 -10 -10 -10 -9 -9 -9 -9 -8 -8 -8 -8 -8 -8 -7 -7 -7 -7 -7 -7 -7 -7 -7 -7 -7 -7
-12 -12 -12 -12 -12 -12 -12 -12 -12 -12 -12 -12 -11 -11 -11 -11 -11 -10 -10 -10 -10 -10 -10 -9 -9 -9 -9 -8 -8 -8 -8 -8 -8 -8 -7 -7 -7 -7 -7 -7 -7 -7 -7
-12 -12 -12 -12 -12 -12 -12 -12 -12 -12 -12 -12 -12 -11 -11 -11 -11 -11 -10 -10 -10 -10 -10 -10 -10 -9 -9 -9 -9 -8 -8 -8 -8 -8 -8 -8 -8 -8 -8 -8 -8 -8 -8
-12 -12 -12 -12 -12 -12 -12 -12 -12 -12 -12 -12 -12 -12 -12 -11 -11 -11 -11 -11 -11 -10 -10 -10 -10 -10 -9 -9 -9 -9 -9 -8 -8 -8 -8 -8 -8 -8 -8 -8 -8 -8 -8
Wind_Speed
6 6 7 6 6 6 5 6 6 6 5 5 4 4 4 5 5 4 4 4 4 4 4 5 5 4 4 4 3 3 3 3 3 3 1 2 2 2 2 2 2 4 5
6 6 7 7 6 6 6 6 6 6 6 6 5 4 4 5 5 4 5 5 5 5 5 5 5 4 5 4 4 5 4 4 4 4 2 2 2 3 3 3 2 4 4
6 6 7 7 7 6 6 7 7 6 6 6 5 5 5 5 5 5 5 5 5 5 5 6 6 5 5 4 5 5 4 4 3 4 3 2 2 2 3 2 2 2 4
7 7 7 7 7 6 6 6 7 6 6 6 6 5 5 5 5 5 5 5 5 5 5 6 6 6 6 6 6 6 5 4 4 4 4 3 2 2 3 3 1 1 2
7 7 7 7 7 6 6 6 6 6 7 6 6 6 5 5 5 5 5 5 5 5 6 6 6 7 8 7 6 6 6 5 5 5 5 4 3 4 4 3 3 2 1
7 7 8 7 7 7 7 6 6 6 6 5 6 6 6 5 8 9 7 5 5 6 6 5 6 7 8 9 10 9 9 8 7 6 5 6 6 5 4 4 4 3 2
8 8 8 7 7 7 8 7 7 6 6 6 5 6 6 7 10 10 9 5 5 5 6 5 5 5 6 6 7 8 9 11 11 8 7 7 6 7 6 6 5 4 3
8 8 8 7 7 7 7 7 7 6 6 6 6 6 6 7 9 9 9 6 5 5 5 5 5 5 5 5 5 5 6 7 8 7 7 7 6 6 7 6 5 2 1
8 8 8 8 8 8 7 7 7 6 6 6 6 6 6 7 9 9 8 4 4 5 5 5 5 5 7 7 5 5 5 4 5 7 8 8 8 9 7 5 5 4 3
8 8 8 8 8 8 8 7 7 6 7 7 7 6 6 6 8 8 8 3 4 4 4 4 6 7 8 7 5 5 5 4 3 2 3 4 5 7 9 7 7 6 3
8 8 8 8 8 8 7 6 7 7 6 6 6 6 5 6 7 8 8 4 4 4 4 3 4 6 7 7 6 5 6 4 3 4 3 3 4 4 4 4 5 5 5
8 8 8 8 8 8 7 6 6 6 6 6 5 5 4 5 6 7 8 7 6 4 4 3 4 6 6 6 5 5 5 4 3 4 4 4 4 4 4 3 3 3 3
8 8 8 8 7 7 6 6 6 5 5 5 5 5 5 4 5 8 8 8 7 4 4 5 5 6 5 4 4 4 4 3 4 4 4 3 3 4 4 3 3 3 2
8 8 8 7 7 7 6 5 5 5 5 5 5 5 5 5 4 4 4 4 5 4 3 3 3 4 3 2 2 3 3 3 4 4 4 3 3 3 3 3 3 3 1
8 8 8 7 7 6 6 5 6 5 6 6 5 5 5 5 7 9 6 4 3 3 3 2 2 2 1 1 1 1 2 2 3 3 4 3 3 3 3 3 3 3 3
8 8 6 6 6 6 5 6 8 8 11 11 9 8 6 8 10 9 8 8 7 5 3 2 2 2 2 2 2 2 2 2 2 3 3 4 4 4 3 3 3 3 3
7 8 6 6 6 6 6 6 7 8 9 10 10 9 9 9 9 9 8 7 6 4 2 2 2 2 2 2 2 2 2 2 2 3 3 3 3 4 4 4 4 3 3
7 8 8 6 5 5 6 6 5 6 7 6 7 9 10 9 9 8 7 5 3 3 1 2 2 2 2 2 2 2 2 2 2 2 3 3 3 3 4 4 4 4 4
7 6 5 5 5 5 5 5 5 6 6 6 6 6 9 8 8 7 6 3 3 3 2 2 2 2 2 2 2 2 2 2 2 2 3 3 3 3 4 4 4 5 4
6 9 8 5 5 5 5 5 5 5 5 5 5 5 5 5 4 4 3 3 3 3 3 3 3 2 2 2 2 2 2 3 3 3 3 3 3 3 4 4 4 4 4
6 7 9 7 5 5 5 5 5 5 5 5 5 6 8 4 4 4 4 3 3 3 3 3 3 2 2 2 2 3 3 3 3 3 3 3 3 3 3 3 4 4 4
5 5 5 5 5 5 5 5 5 5 5 6 6 6 9 5 4 4 4 4 4 3 3 3 3 2 2 2 2 3 3 3 3 3 3 3 3 3 3 3 3 3 4
5 6 6 5 5 7 6 5 5 5 5 5 5 5 5 4 4 4 4 4 4 3 3 3 3 3 3 3 3 3 4 4 4 4 4 4 4 4 4 4 4 4 4
5 6 6 5 5 5 5 5 5 5 5 5 5 5 5 4 4 5 4 4 3 3 4 3 3 3 3 4 4 4 5 5 5 4 5 4 4 4 4 4 4 5 5
5 5 5 5 5 5 5 5 5 5 6 6 6 5 5 5 4 4 4 3 3 3 4 4 4 3 4 4 5 5 5 6 6 5 4 4 4 4 4 4 4 4 4
5 5 4 4 4 5 5 5 5 5 5 5 5 5 5 5 5 4 4 3 4 4 4 4 5 5 5 5 5 6 6 6 6 5 4 4 4 4 4 4 4 4 4
Wind_Direction
333 329 326 323 322 321 315 310 308 308 303 292 286 282 285 287 290 284 274 257 252 255 246 234 233 228 212 209 208 209 212 202 228 257 244 187 171 163 171 180 191 195 193
328 326 323 320 320 318 317 316 317 313 311 303 294 281 276 280 279 275 280 273 257 254 251 241 234 229 221 213 212 214 214 208 206 226 232 205 202 183 174 175 193 193 190
326 323 322 321 319 315 314 315 316 312 308 307 298 289 281 276 273 269 270 273 265 258 251 244 239 225 225 220 215 213 214 213 202 207 219 210 206 178 162 162 162 184 193
322 320 318 316 312 311 312 312 310 307 303 299 296 290 286 282 275 269 268 269 271 269 263 252 244 229 225 220 221 214 210 205 198 202 207 196 194 179 159 167 184 207 200
321 319 315 313 309 307 309 308 306 304 301 298 297 292 289 285 279 275 264 263 265 267 266 257 249 241 235 229 228 216 209 208 202 207 206 198 196 184 189 185 191 192 219
314 311 312 313 314 311 310 308 305 302 299 297 296 294 287 284 286 284 277 267 264 264 268 266 256 241 238 238 238 230 217 209 205 210 213 205 205 200 189 183 175 174 222
314 314 315 315 312 309 311 310 305 304 302 297 297 296 287 283 284 283 280 272 262 262 262 262 263 250 240 235 238 235 229 226 218 213 218 213 204 198 187 188 189 193 219
316 317 320 319 313 309 307 305 305 303 301 298 295 292 288 286 289 288 287 281 265 260 257 251 251 249 242 235 230 227 229 231 223 220 222 218 211 197 195 193 185 183 187
317 318 318 318 313 309 305 301 302 302 300 296 292 289 288 285 289 292 294 280 274 266 261 252 247 244 244 239 229 225 228 233 229 224 222 213 207 205 193 168 166 174 213
314 314 314 312 307 303 299 299 299 296 293 295 291 283 279 279 287 294 298 279 275 274 266 253 248 251 249 242 232 221 225 225 211 213 199 193 190 193 198 195 186 188 197
312 311 309 307 305 302 299 299 298 297 296 293 289 285 280 286 292 294 296 288 275 276 274 273 264 252 248 247 247 236 230 226 213 202 187 178 171 179 182 188 190 190 197
309 308 307 306 306 307 304 304 301 300 298 296 292 291 286 289 293 291 294 293 296 281 274 274 276 269 253 250 250 239 230 229 217 198 188 191 188 188 181 165 169 182 203
309 306 306 306 303 302 301 301 300 298 296 298 298 297 298 297 292 295 299 299 301 295 279 274 280 281 275 256 239 231 224 218 203 195 196 200 191 179 156 137 122 114 80
310 306 305 304 304 303 301 299 298 297 296 297 298 298 299 303 303 299 300 302 306 303 291 279 287 289 278 264 242 227 222 213 198 194 187 178 163 166 170 166 169 159 158
310 308 308 305 301 299 298 295 296 285 288 294 288 288 293 295 297 302 305 303 301 294 303 290 279 271 266 250 237 228 215 197 193 180 173 172 177 179 180 177 182 185 207
311 311 309 307 305 304 303 306 304 304 306 305 302 298 294 293 303 304 301 304 302 297 293 249 257 256 257 256 247 240 221 198 187 178 173 180 188 192 188 183 183 189 199
305 305 306 307 305 304 305 306 311 316 314 312 311 308 305 306 306 310 307 305 296 291 277 248 247 246 251 250 244 235 232 206 184 181 180 183 190 194 190 192 194 195 206
305 303 304 302 301 301 300 301 304 308 314 316 313 312 314 313 312 313 315 323 311 299 279 264 260 249 247 243 235 232 220 199 187 187 186 186 189 191 193 199 197 199 206
309 307 303 301 300 299 300 302 301 302 305 310 315 317 318 317 316 316 321 323 307 301 301 286 275 260 251 245 233 222 214 209 198 191 192 193 194 191 200 205 204 207 214
312 312 314 307 303 302 302 302 302 302 303 305 308 312 316 316 315 318 315 306 299 293 290 289 285 273 259 247 234 226 222 214 202 198 201 203 205 203 203 206 210 211 218
313 314 315 311 305 302 302 301 299 298 298 299 300 304 310 311 308 306 304 299 295 292 292 291 285 276 264 257 243 229 225 223 215 206 205 206 207 209 210 211 214 217 216
312 309 308 304 303 303 301 296 296 296 298 298 302 306 310 313 305 300 297 296 296 294 293 288 282 271 259 252 247 240 231 225 218 209 208 209 209 209 209 211 212 216 212
313 311 308 306 304 307 309 307 303 299 298 298 300 304 305 305 304 302 299 302 306 306 305 292 279 277 273 264 253 240 234 232 226 215 210 213 212 211 209 211 212 215 217
310 308 307 305 305 307 308 308 307 308 308 307 305 304 304 303 303 303 303 305 307 307 306 296 285 278 278 278 271 262 255 250 246 231 212 205 210 212 211 212 217 216 218
316 314 315 315 314 312 310 309 309 309 310 309 308 309 309 309 308 308 307 307 306 303 306 306 297 286 280 279 274 267 261 261 262 246 217 203 205 208 209 211 214 214 218
323 323 321 320 318 316 313 312 311 311 310 310 311 312 313 313 312 311 311 311 310 307 306 306 299 294 288 284 277 270 266 264 260 254 235 202 202 206 204 208 208 215 216
Height
1499 1496 1494 1492 1490 1488 1486 1484 1483 1482 1481 1481 1480 1480 1480 1481 1481 1482 1483 1484 1484 1485 1486 1488 1489 1491 1492 1494 1496 1498 1500 1501 1501 1502 1505 1506 1508 1509 1510 1512 1513 1515 1517
1496 1493 1491 1488 1486 1484 1482 1480 1479 1478 1477 1476 1476 1475 1475 1476 1476 1477 1477 1478 1479 1480 1481 1482 1484 1485 1486 1488 1490 1492 1494 1496 1497 1498 1499 1501 1503 1504 1506 1508 1509 1511 1512
1492 1490 1487 1485 1482 1480 1478 1476 1475 1474 1472 1472 1471 1470 1470 1471 1471 1471 1472 1473 1473 1474 1476 1477 1478 1480 1481 1482 1484 1486 1489 1490 1492 1493 1494 1495 1498 1500 1501 1503 1504 1506 1508
1489 1486 1483 1481 1478 1476 1474 1472 1471 1470 1468 1467 1466 1466 1466 1465 1466 1466 1467 1467 1468 1469 1470 1471 1472 1474 1475 1477 1479 1481 1483 1484 1486 1487 1489 1490 1492 1494 1496 1497 1499 1501 1502
1485 1482 1479 1477 1474 1472 1470 1468 1467 1465 1464 1463 1462 1461 1461 1460 1460 1461 1461 1462 1463 1463 1464 1465 1467 1468 1470 1472 1473 1475 1477 1478 1480 1482 1483 1484 1486 1488 1490 1492 1494 1495 1497
1481 1478 1475 1472 1470 1468 1466 1464 1462 1461 1460 1459 1457 1457 1456 1456 1456 1456 1457 1457 1457 1458 1458 1459 1461 1462 1464 1466 1467 1469 1471 1473 1474 1476 1477 1478 1480 1483 1485 1487 1488 1490 1491
1477 1474 1471 1468 1465 1463 1462 1460 1458 1457 1455 1454 1453 1452 1451 1451 1451 1451 1451 1452 1452 1452 1453 1454 1455 1456 1458 1459 1461 1463 1465 1467 1469 1470 1471 1472 1474 1477 1479 1481 1483 1484 1486
1473 1470 1467 1464 1461 1459 1457 1455 1454 1452 1451 1449 1448 1448 1447 1446 1446 1446 1446 1447 1447 1447 1447 1448 1449 1450 1452 1453 1455 1456 1458 1460 1462 1464 1466 1468 1470 1472 1474 1476 1477 1480 1482
1469 1466 1463 1460 1457 1455 1453 1451 1449 1448 1446 1445 1444 1443 1442 1442 1442 1442 1442 1442 1441 1441 1442 1443 1443 1444 1446 1448 1449 1450 1452 1454 1456 1458 1460 1462 1464 1466 1468 1470 1472 1474 1475
1466 1462 1460 1457 1454 1451 1449 1447 1445 1444 1442 1440 1439 1438 1438 1437 1437 1437 1437 1437 1437 1436 1437 1437 1438 1439 1440 1442 1443 1444 1445 1447 1450 1451 1454 1456 1458 1460 1462 1465 1466 1468 1470
1462 1459 1456 1453 1450 1448 1445 1443 1441 1439 1437 1436 1435 1434 1434 1433 1433 1433 1433 1433 1432 1432 1431 1432 1432 1433 1434 1436 1438 1439 1440 1442 1444 1446 1448 1450 1452 1454 1456 1459 1461 1463 1465
1458 1455 1452 1449 1447 1444 1442 1439 1437 1435 1433 1431 1430 1429 1429 1429 1429 1428 1428 1428 1428 1428 1427 1427 1428 1428 1429 1431 1432 1433 1435 1437 1438 1440 1442 1444 1446 1449 1451 1454 1456 1458 1460
1454 1451 1448 1445 1443 1441 1438 1436 1434 1432 1430 1428 1427 1425 1424 1424 1424 1424 1424 1423 1423 1423 1423 1423 1424 1424 1425 1426 1427 1429 1430 1431 1433 1434 1436 1439 1441 1444 1446 1449 1451 1453 1455
1450 1447 1444 1442 1439 1437 1435 1433 1430 1428 1427 1425 1423 1422 1421 1420 1420 1419 1419 1419 1418 1418 1418 1419 1419 1420 1421 1421 1422 1424 1425 1426 1428 1429 1431 1434 1437 1439 1441 1443 1445 1447 1449
1446 1444 1441 1438 1436 1433 1431 1429 1427 1426 1424 1423 1421 1420 1418 1416 1416 1416 1416 1415 1414 1414 1414 1414 1415 1416 1416 1417 1418 1419 1421 1422 1424 1425 1427 1429 1432 1434 1436 1438 1440 1442 1444
1443 1440 1437 1435 1433 1430 1428 1425 1424 1423 1421 1419 1418 1417 1415 1414 1413 1412 1412 1411 1411 1411 1411 1411 1411 1412 1413 1413 1414 1415 1417 1418 1419 1421 1423 1425 1427 1429 1431 1433 1435 1437 1439
1440 1437 1434 1432 1430 1427 1425 1422 1419 1418 1417 1415 1414 1413 1412 1411 1410 1409 1408 1408 1408 1408 1407 1407 1408 1409 1409 1410 1411 1412 1413 1414 1416 1417 1418 1420 1422 1424 1426 1428 1430 1432 1434
1437 1434 1432 1429 1427 1424 1422 1420 1418 1415 1413 1411 1411 1410 1409 1408 1407 1406 1405 1404 1404 1404 1404 1404 1405 1406 1406 1407 1407 1408 1409 1410 1412 1413 1414 1416 1418 1420 1422 1424 1426 1427 1429
1434 1431 1429 1426 1424 1422 1420 1417 1415 1413 1411 1409 1407 1406 1406 1404 1404 1403 1402 1402 1401 1401 1401 1401 1402 1402 1403 1403 1404 1405 1405 1406 1408 1409 1410 1412 1414 1416 1417 1419 1421 1423 1424
1431 1429 1426 1424 1421 1419 1417 1415 1413 1411 1409 1407 1405 1404 1403 1401 1400 1400 1400 1399 1399 1399 1399 1399 1399 1399 1400 1400 1400 1401 1402 1403 1404 1406 1407 1409 1410 1412 1413 1415 1416 1418 1419
1428 1426 1424 1421 1419 1417 1415 1413 1411 1409 1407 1405 1403 1402 1401 1400 1398 1398 1397 1397 1397 1396 1396 1396 1396 1396 1396 1396 1397 1397 1398 1399 1400 1402 1403 1405 1406 1407 1409 1410 1412 1413 1414
1426 1423 1421 1419 1416 1414 1412 1411 1409 1407 1405 1403 1401 1400 1399 1398 1396 1395 1395 1394 1394 1393 1393 1393 1393 1393 1393 1393 1393 1394 1395 1396 1397 1398 1399 1401 1402 1403 1405 1406 1407 1408 1409
1423 1421 1418 1416 1414 1412 1410 1408 1406 1404 1403 1401 1399 1398 1396 1395 1394 1393 1392 1392 1391 1390 1390 1389 1389 1389 1389 1390 1390 1391 1391 1392 1393 1394 1395 1396 1398 1399 1400 1401 1402 1404 1405
1421 1418 1416 1413 1411 1409 1408 1406 1404 1402 1400 1399 1397 1395 1394 1393 1392 1391 1390 1389 1388 1388 1387 1386 1386 1386 1386 1386 1386 1387 1387 1388 1389 1390 1392 1393 1393 1394 1396 1397 1398 1399 1400
1418 1416 1413 1411 1409 1407 1405 1403 1401 1400 1398 1396 1395 1393 1392 1390 1389 1388 1387 1386 1385 1385 1384 1383 1383 1383 1383 1383 1383 1383 1384 1385 1386 1387 1388 1388 1389 1390 1391 1392 1393 1394 1395
1416 1414 1411 1409 1407 1405 1403 1401 1399 1397 1396 1394 1392 1391 1389 1388 1387 1386 1384 1383 1382 1382 1381 1380 1380 1380 1379 1379 1379 1380 1380 1381 1382 1383 1384 1384 1385 1386 1387 1388 1389 1390 1391